Hourly Data Report for September 07, 2006

TORONTO CITY
ONTARIO

43°40'00.000" N
79°24'00.000" W
112.50 m
6158355
71508
XTO

Download Data

Hourly Data (September 2006)
Hourly Data Report for September 7, 2006
TIME
LST
Temp Definition
°C
Dew Point Definition
°C
Rel Hum Definition
%
Precip. Amount Definition
mm

Wind Dir Definition
10's deg

Wind Spd Definition
km/h
Visibility Definition
km
Stn Press Definition
kPa
Hmdx Definition


Wind Chill Definition


Weather Definition


00:00 17.6 15.1 85   LegendMM LegendMM   100.38     LegendNANA
01:00 17.7 15.3 86   LegendMM LegendMM   100.36     LegendNANA
02:00 17.7 15.7 88   LegendMM LegendMM   100.35     LegendNANA
03:00 18.0 16.8 93   LegendMM LegendMM   100.34     LegendNANA
04:00 17.9 16.6 92   LegendMM LegendMM   100.33     LegendNANA
05:00 18.0 16.7 92   LegendMM LegendMM   100.35     LegendNANA
06:00 17.9 16.9 94   LegendMM LegendMM   100.37     LegendNANA
07:00 17.5 15.9 90   LegendMM LegendMM   100.42     LegendNANA
08:00 18.3 16.4 89   LegendMM LegendMM   100.43     LegendNANA
09:00 19.5 16.2 81   LegendMM LegendMM   100.46     LegendNANA
10:00 20.4 14.0 67   LegendMM LegendMM   100.48     LegendNANA
11:00 21.6 16.8 74   LegendMM LegendMM   100.46 27   LegendNANA
12:00 22.0 16.9 73   LegendMM LegendMM   100.43 27   LegendNANA
13:00 22.7 14.8 61   LegendMM LegendMM   100.40 27   LegendNANA
14:00 23.0 12.5 52   LegendMM LegendMM   100.35 26   LegendNANA
15:00 23.4 13.3 53   LegendMM LegendMM   100.30 26   LegendNANA
16:00 23.0 14.8 60   LegendMM LegendMM   100.24 27   LegendNANA
17:00 22.6 14.4 60   LegendMM LegendMM   100.21 26   LegendNANA
18:00 21.6 15.1 67   LegendMM LegendMM   100.16 26   LegendNANA
19:00 21.2 17.6 80   LegendMM LegendMM   100.17 27   LegendNANA
20:00 20.8 16.8 78   LegendMM LegendMM   100.22 26   LegendNANA
21:00 20.2 16.4 79   LegendMM LegendMM   100.19 25   LegendNANA
22:00 19.6 16.8 84   LegendMM LegendMM   100.19     LegendNANA
23:00 18.5 14.5 78   LegendMM LegendMM   100.18     LegendNANA

Notes on Data Quality.

Legend

  • E = Estimated
  • M = Missing
  • NA = Not Available*
  • [empty] = Indicates an unobserved value
Date modified: